Regional Weather Roundup
Issued by NWS

Home | Current Version | Previous Version | Text Only | Print | Product List | Glossary On
Versions: 1 2 3 4 5 6 7 8 9 10 11 12 13 14 15 16 17 18 19 20 21 22 23 24 25 26 27 28 29 30 31 32 33 34 35 36 37 38 39 40 41 42 43 44 45
579
ASUS44 KJAN 051703
RWRMS

MISSISSIPPI HOURLY WEATHER ROUNDUP
NATIONAL WEATHER SERVICE JACKSON MS
1100 AM CST THU MAR 05 2015

NOTE: "FAIR: INDICATES FEW OR NO CLOUDS BELOW 12,000 FEET WITH NO
SIGNIFICANT WEATHER AND/OR OBSTRUCTIONS TO VISIBILITY.

MSZ001>002-007>008-010>013-018>021-025>028-034>036-051800-
NORTHWEST MISSISSIPPI

CITY           SKY/WX    TMP DP  RH WIND       PRES   REMARKS
CLARKSDALE     PTSUNNY   27  18  69 CALM      30.55R
CLEVELAND      FAIR      26  20  76 N23G29    30.51R WCI  12
GREENWOOD      CLOUDY    27  18  69 N14G23    30.49R WCI  16
GREENVILLE     CLOUDY    27  18  69 MISG      30.53R
OLIVE BRANCH   PTSUNNY   25  21  86 N9        30.51R WCI  15
OXFORD         FAIR      23  16  74 N13G24    30.48R WCI  11
TUNICA         PTSUNNY   27  19  74 N9        30.54R WCI  17
$$

MSZ003>006-009-014>017-022>024-029>033-037>039-051800-
NORTHEAST MISSISSIPPI

CITY           SKY/WX    TMP DP  RH WIND       PRES   REMARKS
COLUMBUS AFB   MIX PCPN  28  23  80 N16       30.35R WCI  17
CORINTH        CLOUDY    25  18  74 N16       30.43R WCI  12
GOLDN TRIANGLE CLOUDY   N/A N/A N/A N17G24    30.34R
STARKVILLE     CLOUDY    28  27  93 CALM      30.38R
TUPELO         CLOUDY    25  19  78 N16G30    30.41R WCI  12
$$

MSZ040-058-051800-
CENTRAL MISSISSIPPI

CITY           SKY/WX    TMP DP  RH WIND       PRES   REMARKS
JACKSON INTL   LGTSLEET  29  25  85 N18G26    30.39F FOG     WCI  16
JACKSON HAWKNS MIX PCPN  28  25  88 N9G22     30.40F FOG     WCI  19
MERIDIAN KEY   FLURRIES  34  30  85 NW16G30   30.32R WCI  24
MERIDIAN NAS   SLEET     32  29  88 NW18G25   30.33R FOG     WCI  20
VICKSBURG      CLOUDY    29  22  75 N18G31    30.48R WCI  16
$$

MSZ059>079-051800-
SOUTH MISSISSIPPI

CITY           SKY/WX    TMP DP  RH WIND       PRES   REMARKS
BROOKHAVEN     MIX PCPN  32  32 100 CALM      30.36S
HATTIESBURG    CLOUDY    40  35  83 NW15G24   30.30R WCI  32
MCCOMB         CLOUDY    33  29  85 N16G25    30.32R WCI  23
NATCHEZ        NOT AVBL
PINE BELT      CLOUDY    37  34  87 N13G23    30.31R WCI  29
$$

MSZ080>082-051800-
COASTAL MISSISSIPPI

CITY           SKY/WX    TMP DP  RH WIND       PRES   REMARKS
BAY ST LOUIS   RAIN      43  37  81 N15G25    30.24R
BILOXI         NOT AVBL
PASCAGOULA     PTSUNNY   51  41  68 N16G29    30.14R
GULFPORT       CLOUDY    44  38  79 N17G26    30.19R
$$



USA.gov is the U.S. government's official web portal to all federal, state and local government web resources and services.